Terminal Aerodrome Forecast
Issued by NWS Milwaukee/Sullivan, WI

Home | Current Version | Previous Version | Text Only | Print | Product List | Glossary On
Versions: 1 2 3 4 5 6 7 8 9 10 11 12 13 14 15 16 17 18 19 20 21 22 23 24 25 26 27 28 29 30 31 32 33 34 35 36 37 38 39 40 41 42 43 44 45 46 47 48 49 50
000
FTUS43 KMKX 290321 AAB
TAFMSN
TAF AMD
KMSN 290321Z 2903/2924 06008KT 6SM -SHRA OVC010
      TEMPO 2903/2904 4SM -DZ BR OVC006
     FM290400 VRB03KT 4SM BR VCSH OVC006
     FM291000 04005KT P6SM OVC008
     FM291500 05006KT P6SM BKN020
     FM292200 07006KT P6SM SCT040=

USA.gov is the U.S. government's official web portal to all federal, state and local government web resources and services.